Find Starlink 34922

NORAD ID: 65273 Int'l Des: 2025-184 Owner: SPXS Country: US Constellation: starlink operational
LEOCIRCULARRETROGRADESSO

当前视图

正在加载3D地球...

About Starlink 34922

Starlink 34922 (NORAD 65273) is a starlink constellation satellite (v2 mini) launched Aug 22, 2025 by SPXS of US. It operates in LEO, CIRCULAR, RETROGRADE, SSO orbit with a mass of 575.00 kg.

即将过境

Passes for default location (London). Set your location on the main map for personalized predictions.

高度历史

Loading altitude history...

两行轨道根数

1 65273U 25184A 26238.10359350 .00017255 00000-0 53546-3 0 9996
2 65273 97.2833 286.4575 0001275 100.3251 259.8136 15.33452526 56833
Epoch: Aug 26, 2026 • Age: 7 hours

当前状态

高度 477.6 km
远地点 / 近地点 N/A
速度 7.63 km/s
星下点 75.98°N, 24.78°E
发射日期 Aug 22, 2025
运行时间 1 year
类型 internet

技术详情

分类 Payload
质量 575.00 kg
干质量 530.00 kg
总质量 575.00 kg
长度 0.30 m
直径 4.10 m
跨度 29.00 m
形状 Box + pan
制造商 SPXS
平台类型 Starlink V2MO
阶段状态 In Orbit
所有者/国家 SPXS/US

Most Searched